Flag for U.S.A. Weather past 2 weeks in Wilmington, Delaware, U.S.A.

Now
74 °F

Partly sunny.


Feels Like: 77 °F
Forecast: 61 / 72 °F
Wind: 8 mph from Northeast

Location: New Castle County Airport

Current Time: Oct 1, 2014 at 4:57:52 PM

Latest Report: Oct 1, 2014 at 3:51 PM


Visibility: 10 mi

Pressure: 30.00 "Hg

Humidity: 53%

Dew point: 56 °F

Location of WilmingtonLocation

Historic Weather in Wilmington — Graph

°F

Wilmington temperature yesterday

Maximum temperature yesterday: 76 °F (at 3:51 PM)
Minimum temperature yesterday: 64 °F (at 3:51 AM)
Average temperature yesterday: 69 °F

Past Weeks' High & Low Weather Summary

 TemperatureHumidityPressure
High83 °F (Sep 27, 2:51 PM)97% (Sep 21, 3:59 AM)30.50 "Hg (Sep 21, 3:59 AM)
Low44 °F (Sep 23, 6:51 AM)39% (Sep 23, 2:51 PM)29.64 "Hg (Sep 21, 5:51 PM)
Average65 °F74%30.12 "Hg
* Reported Sep 16 2:51 PM — Oct 1 2:51 PM, Wilmington, Weather by CustomWeather, © 2014

Note: Actual official high and low records may vary slightly from our data, if they occured in-between our weather recording intervals... More about our weather records

Advertising

Wilmington weather history for previous 24 hours

 ConditionsComfort  
Time TempWeatherWind HumidityBarometerVisibility
2:51 PM
Oct 1
74 °FMore clouds than sun.5 mph53%30.01 "Hg10 mi
1:51 PM73 °FPartly sunny.3 mph57%30.02 "Hg10 mi
12:58 PM71 °FPartly sunny.8 mph63%30.04 "Hg10 mi
11:51 AM70 °FPartly sunny.9 mph64%30.05 "Hg10 mi
10:51 AM68 °FOvercast.10 mph70%30.05 "Hg10 mi
9:51 AM66 °FMostly cloudy.6 mph78%30.05 "Hg10 mi
8:51 AM65 °FOvercast.6 mph85%30.03 "Hg10 mi
7:51 AM62 °FMostly cloudy.6 mph90%30.01 "Hg10 mi
6:51 AM61 °FClear.7 mph90%30.00 "Hg10 mi
5:51 AM61 °FPassing clouds.5 mph90%29.97 "Hg10 mi
4:51 AM62 °FPassing clouds.6 mph90%29.98 "Hg10 mi
3:51 AM63 °FPassing clouds.8 mph87%29.97 "Hg10 mi
2:51 AM63 °FPassing clouds.6 mph90%29.98 "Hg10 mi
1:51 AM64 °FMostly cloudy.6 mph87%29.99 "Hg10 mi
12:51 AM65 °FPassing clouds.7 mph85%29.98 "Hg10 mi
11:51 PM
Sep 30
65 °FOvercast.5 mph85%29.97 "Hg10 mi
10:51 PM65 °FOvercast.7 mph85%29.97 "Hg10 mi
9:51 PM66 °FPartly cloudy.12 mph81%29.96 "Hg10 mi
8:51 PM68 °FPassing clouds.9 mph76%29.95 "Hg10 mi
7:51 PM70 °FOvercast.6 mph73%29.93 "Hg10 mi
6:51 PM71 °FSunny.9 mph68%29.89 "Hg10 mi
5:51 PM73 °FSunny.5 mph64%29.88 "Hg10 mi
4:51 PM75 °FSunny.3 mph60%29.88 "Hg10 mi
Weather by CustomWeather, © 2014

See weather overviewHow to use our weather pages